Time,TemperatureF,DewpointF,PressureIn,WindDirection,WindDirectionDegrees,WindSpeedMPH,WindSpeedGustMPH,Humidity,HourlyPrecipIn,Conditions,Clouds,dailyrainin,SoftwareType,DateUTC
2017-05-22 00:00:00,71.4,47.1,29.72,ESE,110,8.1,10.0,42,0.00,,,0.00,meteobridge,2017-05-22 06:00:00,
2017-05-22 00:05:00,71.6,47.3,29.72,East,92,6.0,14.0,42,0.00,,,0.00,meteobridge,2017-05-22 06:05:00,
2017-05-22 00:10:00,71.6,47.3,29.72,ESE,104,13.0,13.0,42,0.00,,,0.00,meteobridge,2017-05-22 06:10:00,
2017-05-22 00:16:00,71.8,47.5,29.71,ESE,104,4.9,12.0,42,0.00,,,0.00,meteobridge,2017-05-22 06:16:00,
2017-05-22 00:21:00,71.6,47.3,29.71,East,101,11.0,11.0,42,0.00,,,0.00,meteobridge,2017-05-22 06:21:00,
2017-05-22 00:26:00,71.6,47.3,29.71,East,96,8.1,10.0,42,0.00,,,0.00,meteobridge,2017-05-22 06:26:00,
2017-05-22 00:31:00,71.6,47.3,29.71,East,97,8.1,11.0,42,0.00,,,0.00,meteobridge,2017-05-22 06:31:00,
2017-05-22 00:36:00,71.4,47.1,29.71,East,96,6.0,8.0,42,0.00,,,0.00,meteobridge,2017-05-22 06:36:00,
2017-05-22 00:41:00,71.4,46.6,29.71,East,97,6.0,8.0,41,0.00,,,0.00,meteobridge,2017-05-22 06:41:00,
2017-05-22 00:47:00,71.4,47.1,29.71,ESE,108,8.9,10.0,42,0.00,,,0.00,meteobridge,2017-05-22 06:47:00,
2017-05-22 00:52:00,71.2,46.9,29.71,ESE,114,14.1,14.1,42,0.00,,,0.00,meteobridge,2017-05-22 06:52:00,
2017-05-22 00:57:00,70.9,47.3,29.71,ESE,114,8.1,10.0,43,0.00,,,0.00,meteobridge,2017-05-22 06:57:00,
2017-05-22 01:02:00,70.5,46.9,29.72,ESE,114,6.0,6.0,43,0.00,,,0.00,meteobridge,2017-05-22 07:02:00,
2017-05-22 01:07:00,70.3,47.5,29.72,ESE,114,6.0,12.0,44,0.00,,,0.00,meteobridge,2017-05-22 07:07:00,
2017-05-22 01:13:00,70.5,46.9,29.72,ESE,114,4.9,11.0,43,0.00,,,0.00,meteobridge,2017-05-22 07:13:00,
2017-05-22 01:18:00,70.3,47.5,29.72,ESE,114,6.0,11.0,44,0.00,,,0.00,meteobridge,2017-05-22 07:18:00,
2017-05-22 01:23:00,70.2,47.3,29.72,ESE,114,2.0,6.0,44,0.00,,,0.00,meteobridge,2017-05-22 07:23:00,
2017-05-22 01:28:00,69.6,47.3,29.72,ESE,114,4.9,5.0,45,0.00,,,0.00,meteobridge,2017-05-22 07:28:00,
2017-05-22 01:34:00,69.1,46.8,29.73,ESE,113,4.9,8.0,45,0.00,,,0.00,meteobridge,2017-05-22 07:34:00,
2017-05-22 01:39:00,68.9,46.0,29.73,ESE,114,8.1,11.0,44,0.00,,,0.00,meteobridge,2017-05-22 07:39:00,
2017-05-22 01:45:00,69.3,45.9,29.73,ESE,116,2.9,8.0,43,0.00,,,0.00,meteobridge,2017-05-22 07:45:00,
2017-05-22 01:50:00,69.1,46.2,29.73,ESE,116,4.9,7.0,44,0.00,,,0.00,meteobridge,2017-05-22 07:50:00,
2017-05-22 01:56:00,68.7,45.9,29.73,ESE,116,6.0,6.0,44,0.00,,,0.00,meteobridge,2017-05-22 07:56:00,
2017-05-22 02:01:00,68.5,45.1,29.74,ESE,116,4.9,5.0,43,0.00,,,0.00,meteobridge,2017-05-22 08:01:00,
2017-05-22 02:06:00,68.7,45.9,29.74,ESE,116,2.9,7.0,44,0.00,,,0.00,meteobridge,2017-05-22 08:06:00,
2017-05-22 02:12:00,68.2,45.5,29.74,ESE,116,2.9,5.0,44,0.00,,,0.00,meteobridge,2017-05-22 08:12:00,
2017-05-22 02:17:00,67.6,45.5,29.74,ESE,116,0.0,2.0,45,0.00,,,0.00,meteobridge,2017-05-22 08:17:00,
2017-05-22 02:22:00,67.3,45.9,29.74,ESE,116,0.9,1.0,46,0.00,,,0.00,meteobridge,2017-05-22 08:22:00,
2017-05-22 02:28:00,66.9,45.5,29.74,ESE,116,0.0,2.0,46,0.00,,,0.00,meteobridge,2017-05-22 08:28:00,
2017-05-22 02:33:00,66.4,45.5,29.74,ESE,116,0.0,3.0,47,0.00,,,0.00,meteobridge,2017-05-22 08:33:00,
2017-05-22 02:38:00,66.0,45.1,29.74,ESE,116,2.0,3.0,47,0.00,,,0.00,meteobridge,2017-05-22 08:38:00,
2017-05-22 02:44:00,66.0,44.6,29.74,ESE,116,4.9,6.0,46,0.00,,,0.00,meteobridge,2017-05-22 08:44:00,
2017-05-22 02:49:00,67.3,44.6,29.74,ESE,116,4.9,6.0,44,0.00,,,0.00,meteobridge,2017-05-22 08:49:00,
2017-05-22 02:54:00,68.2,44.8,29.74,ESE,116,2.9,5.0,43,0.00,,,0.00,meteobridge,2017-05-22 08:54:00,
2017-05-22 02:59:00,68.4,45.0,29.72,ESE,116,2.0,7.0,43,0.00,,,0.00,meteobridge,2017-05-22 08:59:00,
2017-05-22 03:05:00,68.4,45.0,29.72,ESE,116,6.0,6.0,43,0.00,,,0.00,meteobridge,2017-05-22 09:05:00,
2017-05-22 03:10:00,68.5,43.9,29.72,ESE,116,0.9,5.0,41,0.00,,,0.00,meteobridge,2017-05-22 09:10:00,
2017-05-22 03:15:00,68.5,43.9,29.71,ESE,116,2.0,4.0,41,0.00,,,0.00,meteobridge,2017-05-22 09:15:00,
2017-05-22 03:21:00,68.7,43.3,29.71,ESE,116,2.0,4.0,40,0.00,,,0.00,meteobridge,2017-05-22 09:21:00,
2017-05-22 03:26:00,68.9,43.0,29.71,ESE,114,2.0,3.0,39,0.00,,,0.00,meteobridge,2017-05-22 09:26:00,
2017-05-22 03:31:00,68.7,43.3,29.72,ESE,116,4.0,5.0,40,0.00,,,0.00,meteobridge,2017-05-22 09:31:00,
2017-05-22 03:37:00,68.4,43.2,29.72,ESE,116,0.9,3.0,40,0.00,,,0.00,meteobridge,2017-05-22 09:37:00,
2017-05-22 03:42:00,68.4,43.7,29.72,ESE,114,4.0,5.0,41,0.00,,,0.00,meteobridge,2017-05-22 09:42:00,
2017-05-22 03:47:00,68.4,43.7,29.72,ESE,116,0.9,3.0,41,0.00,,,0.00,meteobridge,2017-05-22 09:47:00,
2017-05-22 03:52:00,68.4,43.7,29.72,ESE,116,2.0,2.0,41,0.00,,,0.00,meteobridge,2017-05-22 09:52:00,
2017-05-22 03:58:00,68.2,43.5,29.72,ESE,116,0.0,2.0,41,0.00,,,0.00,meteobridge,2017-05-22 09:58:00,
2017-05-22 04:03:00,67.1,43.9,29.72,ESE,116,0.9,2.0,43,0.00,,,0.00,meteobridge,2017-05-22 10:03:00,
2017-05-22 04:09:00,66.4,43.2,29.72,ESE,116,0.9,2.0,43,0.00,,,0.00,meteobridge,2017-05-22 10:09:00,
2017-05-22 04:14:00,66.0,43.5,29.72,ESE,116,0.9,2.0,44,0.00,,,0.00,meteobridge,2017-05-22 10:14:00,
2017-05-22 04:19:00,65.8,43.3,29.72,ESE,116,0.9,2.0,44,0.00,,,0.00,meteobridge,2017-05-22 10:19:00,
2017-05-22 04:25:00,65.5,43.0,29.72,ESE,116,4.9,6.0,44,0.00,,,0.00,meteobridge,2017-05-22 10:25:00,
2017-05-22 04:30:00,64.9,43.2,29.72,ESE,116,2.9,3.0,45,0.00,,,0.00,meteobridge,2017-05-22 10:30:00,
2017-05-22 04:35:00,64.9,43.2,29.72,ESE,116,2.0,6.0,45,0.00,,,0.00,meteobridge,2017-05-22 10:35:00,
2017-05-22 04:40:00,64.9,43.2,29.72,ESE,114,6.0,7.0,45,0.00,,,0.00,meteobridge,2017-05-22 10:40:00,
2017-05-22 04:46:00,64.8,43.0,29.72,ESE,114,2.9,6.0,45,0.00,,,0.00,meteobridge,2017-05-22 10:46:00,
2017-05-22 04:51:00,64.8,43.5,29.72,ESE,114,2.9,5.0,46,0.00,,,0.00,meteobridge,2017-05-22 10:51:00,
2017-05-22 04:56:00,64.6,43.3,29.72,ESE,114,2.9,5.0,46,0.00,,,0.00,meteobridge,2017-05-22 10:56:00,
2017-05-22 05:01:00,64.2,43.0,29.72,ESE,114,4.0,6.0,46,0.00,,,0.00,meteobridge,2017-05-22 11:01:00,
2017-05-22 05:07:00,64.8,43.0,29.72,ESE,114,2.9,6.0,45,0.00,,,0.00,meteobridge,2017-05-22 11:07:00,
2017-05-22 05:12:00,64.8,43.0,29.72,ESE,114,2.9,5.0,45,0.00,,,0.00,meteobridge,2017-05-22 11:12:00,
2017-05-22 05:17:00,64.6,43.3,29.72,ESE,114,4.0,5.0,46,0.00,,,0.00,meteobridge,2017-05-22 11:17:00,
2017-05-22 05:23:00,64.6,43.3,29.72,ESE,114,2.9,5.0,46,0.00,,,0.00,meteobridge,2017-05-22 11:23:00,
2017-05-22 05:28:00,64.2,43.5,29.72,ESE,114,2.0,3.0,47,0.00,,,0.00,meteobridge,2017-05-22 11:28:00,
2017-05-22 05:34:00,64.2,43.5,29.72,ESE,114,4.9,5.0,47,0.00,,,0.00,meteobridge,2017-05-22 11:34:00,
2017-05-22 05:39:00,64.0,43.3,29.72,ESE,114,4.0,4.0,47,0.00,,,0.00,meteobridge,2017-05-22 11:39:00,
2017-05-22 05:44:00,64.0,43.9,29.72,ESE,114,4.0,6.0,48,0.00,,,0.00,meteobridge,2017-05-22 11:44:00,
2017-05-22 05:49:00,63.7,43.7,29.72,ESE,114,2.0,5.0,48,0.00,,,0.00,meteobridge,2017-05-22 11:49:00,
2017-05-22 05:55:00,63.3,43.9,29.72,ESE,116,2.0,4.0,49,0.00,,,0.00,meteobridge,2017-05-22 11:55:00,
2017-05-22 06:00:00,63.1,43.7,29.73,ESE,114,2.0,3.0,49,0.00,,,0.00,meteobridge,2017-05-22 12:00:00,
2017-05-22 06:06:00,63.1,43.7,29.73,ESE,114,6.0,6.0,49,0.00,,,0.00,meteobridge,2017-05-22 12:06:00,
2017-05-22 06:11:00,63.3,43.9,29.73,ESE,114,2.9,5.0,49,0.00,,,0.00,meteobridge,2017-05-22 12:11:00,
2017-05-22 06:16:00,63.1,43.7,29.73,ESE,114,2.0,5.0,49,0.00,,,0.00,meteobridge,2017-05-22 12:16:00,
2017-05-22 06:21:00,63.5,44.1,29.73,ESE,114,2.0,5.0,49,0.00,,,0.00,meteobridge,2017-05-22 12:21:00,
2017-05-22 06:26:00,63.5,44.1,29.73,ESE,114,4.0,6.0,49,0.00,,,0.00,meteobridge,2017-05-22 12:26:00,
2017-05-22 06:32:00,63.7,44.2,29.74,ESE,114,2.0,5.0,49,0.00,,,0.00,meteobridge,2017-05-22 12:32:00,
2017-05-22 06:37:00,63.9,44.2,29.74,ESE,116,2.0,5.0,49,0.00,,,0.00,meteobridge,2017-05-22 12:37:00,
2017-05-22 06:42:00,64.0,43.9,29.74,ESE,117,0.9,2.0,48,0.00,,,0.00,meteobridge,2017-05-22 12:42:00,
2017-05-22 06:48:00,64.0,44.4,29.75,SE,137,2.0,2.0,49,0.00,,,0.00,meteobridge,2017-05-22 12:48:00,
2017-05-22 06:53:00,64.2,44.1,29.75,SE,138,2.0,2.0,48,0.00,,,0.00,meteobridge,2017-05-22 12:53:00,
2017-05-22 06:59:00,65.1,44.4,29.74,SE,137,0.9,3.0,47,0.00,,,0.00,meteobridge,2017-05-22 12:59:00,
2017-05-22 07:00:00,65.3,44.6,29.74,SE,138,0.9,2.0,47,0.00,,,0.00,meteobridge,2017-05-22 13:00:00,
2017-05-22 07:05:00,66.0,44.6,29.74,SE,137,0.0,1.0,46,0.00,,,0.00,meteobridge,2017-05-22 13:05:00,
2017-05-22 07:10:00,66.6,44.6,29.74,SE,138,2.0,2.0,45,0.00,,,0.00,meteobridge,2017-05-22 13:10:00,
2017-05-22 07:15:00,67.3,44.6,29.75,SE,137,0.9,2.0,44,0.00,,,0.00,meteobridge,2017-05-22 13:15:00,
2017-05-22 07:21:00,67.8,44.4,29.75,SE,137,0.0,2.0,43,0.00,,,0.00,meteobridge,2017-05-22 13:21:00,
2017-05-22 07:26:00,68.5,45.1,29.75,SE,137,0.0,0.0,43,0.00,,,0.00,meteobridge,2017-05-22 13:26:00,
2017-05-22 07:32:00,69.1,45.0,29.74,SE,137,0.0,0.0,42,0.00,,,0.00,meteobridge,2017-05-22 13:32:00,
2017-05-22 07:37:00,70.0,45.1,29.74,SE,137,0.0,0.0,41,0.00,,,0.00,meteobridge,2017-05-22 13:37:00,
2017-05-22 07:43:00,70.3,45.5,29.74,SE,137,0.0,0.0,41,0.00,,,0.00,meteobridge,2017-05-22 13:43:00,
2017-05-22 07:48:00,70.5,45.0,29.73,SE,134,0.0,0.0,40,0.00,,,0.00,meteobridge,2017-05-22 13:48:00,
2017-05-22 07:54:00,70.9,44.8,29.73,SE,134,0.0,1.0,39,0.00,,,0.00,meteobridge,2017-05-22 13:54:00,
2017-05-22 07:59:00,70.3,45.0,29.74,SE,135,2.9,3.0,40,0.00,,,0.00,meteobridge,2017-05-22 13:59:00,
2017-05-22 08:04:00,70.0,45.1,29.74,SE,135,4.9,5.0,41,0.00,,,0.00,meteobridge,2017-05-22 14:04:00,
2017-05-22 08:09:00,69.4,47.1,29.74,South,172,6.0,6.0,45,0.00,,,0.00,meteobridge,2017-05-22 14:09:00,
2017-05-22 08:14:00,69.1,47.5,29.76,SSW,209,4.0,6.0,46,0.00,,,0.00,meteobridge,2017-05-22 14:14:00,
2017-05-22 08:19:00,69.1,48.0,29.76,SSW,212,2.9,6.0,47,0.00,,,0.00,meteobridge,2017-05-22 14:19:00,
2017-05-22 08:25:00,68.7,48.2,29.76,SW,228,6.0,8.0,48,0.00,,,0.00,meteobridge,2017-05-22 14:25:00,
2017-05-22 08:30:00,68.5,47.5,29.77,WSW,240,4.9,8.0,47,0.00,,,0.00,meteobridge,2017-05-22 14:30:00,
2017-05-22 08:35:00,68.7,47.7,29.77,WSW,244,4.0,8.0,47,0.00,,,0.00,meteobridge,2017-05-22 14:35:00,
2017-05-22 08:41:00,69.3,47.7,29.77,WSW,244,2.9,3.0,46,0.00,,,0.00,meteobridge,2017-05-22 14:41:00,
2017-05-22 08:46:00,69.6,47.3,29.76,WSW,244,2.0,6.0,45,0.00,,,0.00,meteobridge,2017-05-22 14:46:00,
2017-05-22 08:51:00,70.0,47.1,29.76,WSW,244,2.0,5.0,44,0.00,,,0.00,meteobridge,2017-05-22 14:51:00,
2017-05-22 08:57:00,70.3,47.5,29.76,WSW,244,4.0,7.0,44,0.00,,,0.00,meteobridge,2017-05-22 14:57:00,
2017-05-22 09:02:00,70.3,47.5,29.76,WSW,244,4.0,5.0,44,0.00,,,0.00,meteobridge,2017-05-22 15:02:00,
2017-05-22 09:07:00,70.5,46.9,29.76,WSW,244,6.0,7.0,43,0.00,,,0.00,meteobridge,2017-05-22 15:07:00,
2017-05-22 09:12:00,70.5,46.9,29.76,WSW,244,0.9,6.0,43,0.00,,,0.00,meteobridge,2017-05-22 15:12:00,
2017-05-22 09:18:00,71.1,46.8,29.78,WSW,244,2.0,3.0,42,0.00,,,0.00,meteobridge,2017-05-22 15:18:00,
2017-05-22 09:23:00,71.4,46.6,29.78,WSW,245,2.0,6.0,41,0.00,,,0.00,meteobridge,2017-05-22 15:23:00,
2017-05-22 09:28:00,71.6,46.6,29.78,WSW,248,0.0,3.0,41,0.00,,,0.00,meteobridge,2017-05-22 15:28:00,
2017-05-22 09:34:00,72.0,46.9,29.78,SW,224,0.9,5.0,41,0.00,,,0.00,meteobridge,2017-05-22 15:34:00,
2017-05-22 09:39:00,72.3,46.6,29.78,SW,224,2.9,3.0,40,0.00,,,0.00,meteobridge,2017-05-22 15:39:00,
2017-05-22 09:45:00,72.9,47.1,29.78,SW,224,2.0,6.0,40,0.00,,,0.00,meteobridge,2017-05-22 15:45:00,
2017-05-22 09:51:00,73.8,46.6,29.78,SW,224,0.0,0.0,38,0.00,,,0.00,meteobridge,2017-05-22 15:51:00,
2017-05-22 09:56:00,73.0,45.1,29.78,West,260,6.0,7.0,37,0.00,,,0.00,meteobridge,2017-05-22 15:56:00,
2017-05-22 10:01:00,72.9,45.1,29.77,WNW,284,6.9,11.0,37,0.00,,,0.00,meteobridge,2017-05-22 16:01:00,
2017-05-22 10:06:00,73.2,44.6,29.77,WNW,285,0.9,5.0,36,0.00,,,0.00,meteobridge,2017-05-22 16:06:00,
2017-05-22 10:12:00,73.9,45.3,29.77,WNW,286,0.9,2.0,36,0.00,,,0.00,meteobridge,2017-05-22 16:12:00,
2017-05-22 10:17:00,73.9,45.3,29.77,WNW,285,0.0,2.0,36,0.00,,,0.00,meteobridge,2017-05-22 16:17:00,
2017-05-22 10:23:00,75.4,44.2,29.77,WNW,285,2.9,6.0,33,0.00,,,0.00,meteobridge,2017-05-22 16:23:00,
2017-05-22 10:24:00,75.4,44.2,29.77,WNW,285,2.9,6.0,33,0.00,,,0.00,meteobridge,2017-05-22 16:24:00,
2017-05-22 10:29:00,75.7,43.7,29.76,WNW,285,2.0,5.0,32,0.00,,,0.00,meteobridge,2017-05-22 16:29:00,
2017-05-22 10:34:00,75.9,43.9,29.76,West,281,2.9,6.0,32,0.00,,,0.00,meteobridge,2017-05-22 16:34:00,
2017-05-22 10:39:00,76.3,43.3,29.76,West,279,2.0,4.0,31,0.00,,,0.00,meteobridge,2017-05-22 16:39:00,
2017-05-22 10:45:00,76.6,43.7,29.76,West,279,6.0,6.0,31,0.00,,,0.00,meteobridge,2017-05-22 16:45:00,
2017-05-22 10:50:00,75.4,41.7,29.76,West,279,2.9,7.0,30,0.00,,,0.00,meteobridge,2017-05-22 16:50:00,
2017-05-22 10:55:00,75.6,41.0,29.76,West,279,2.9,6.0,29,0.00,,,0.00,meteobridge,2017-05-22 16:55:00,
2017-05-22 11:00:00,76.5,41.0,29.76,West,279,2.0,3.0,28,0.00,,,0.00,meteobridge,2017-05-22 17:00:00,
2017-05-22 11:06:00,76.8,42.1,29.76,West,274,6.0,6.0,29,0.00,,,0.00,meteobridge,2017-05-22 17:06:00,
2017-05-22 11:11:00,77.4,41.7,29.76,West,275,0.9,3.0,28,0.00,,,0.00,meteobridge,2017-05-22 17:11:00,
2017-05-22 11:16:00,77.5,41.9,29.75,West,274,2.9,6.0,28,0.00,,,0.00,meteobridge,2017-05-22 17:16:00,
2017-05-22 11:21:00,78.4,42.6,29.75,West,274,2.9,6.0,28,0.00,,,0.00,meteobridge,2017-05-22 17:21:00,
2017-05-22 11:24:00,78.6,41.9,29.75,West,274,8.1,8.1,27,0.00,,,0.00,meteobridge,2017-05-22 17:24:00,
2017-05-22 11:29:00,78.8,42.1,29.75,West,272,11.0,11.0,27,0.00,,,0.00,meteobridge,2017-05-22 17:29:00,
2017-05-22 11:34:00,77.7,41.0,29.75,West,272,6.0,8.0,27,0.00,,,0.00,meteobridge,2017-05-22 17:34:00,
2017-05-22 11:39:00,77.2,40.6,29.75,West,272,0.9,7.0,27,0.00,,,0.00,meteobridge,2017-05-22 17:39:00,
2017-05-22 11:44:00,78.6,39.9,29.74,West,271,4.9,11.0,25,0.00,,,0.00,meteobridge,2017-05-22 17:44:00,
2017-05-22 11:49:00,78.4,39.7,29.74,West,267,2.0,11.0,25,0.00,,,0.00,meteobridge,2017-05-22 17:49:00,
2017-05-22 11:55:00,79.2,39.2,29.74,West,267,4.9,6.0,24,0.00,,,0.00,meteobridge,2017-05-22 17:55:00,
2017-05-22 12:00:00,78.6,38.8,29.74,West,268,0.9,2.0,24,0.00,,,0.00,meteobridge,2017-05-22 18:00:00,
2017-05-22 12:05:00,79.9,41.0,29.74,West,267,6.0,6.0,25,0.00,,,0.00,meteobridge,2017-05-22 18:05:00,
2017-05-22 12:10:00,79.9,41.0,29.74,West,265,10.1,10.1,25,0.00,,,0.00,meteobridge,2017-05-22 18:10:00,
2017-05-22 12:15:00,79.9,41.0,29.73,West,262,2.9,8.0,25,0.00,,,0.00,meteobridge,2017-05-22 18:15:00,
2017-05-22 12:20:00,80.2,39.0,29.73,West,264,6.0,7.0,23,0.00,,,0.00,meteobridge,2017-05-22 18:20:00,
2017-05-22 12:26:00,79.9,36.5,29.73,West,264,8.1,8.1,21,0.00,,,0.00,meteobridge,2017-05-22 18:26:00,
2017-05-22 12:31:00,80.1,37.8,29.73,West,265,2.9,5.0,22,0.00,,,0.00,meteobridge,2017-05-22 18:31:00,
2017-05-22 12:33:00,80.4,39.2,29.73,West,265,4.0,6.0,23,0.00,,,0.00,meteobridge,2017-05-22 18:33:00,
2017-05-22 12:38:00,81.1,36.3,29.73,West,262,6.0,8.0,20,0.00,,,0.00,meteobridge,2017-05-22 18:38:00,
2017-05-22 12:43:00,80.8,33.3,29.73,West,260,4.0,7.0,18,0.00,,,0.00,meteobridge,2017-05-22 18:43:00,
2017-05-22 12:48:00,81.3,29.3,29.72,West,260,4.9,7.0,15,0.00,,,0.00,meteobridge,2017-05-22 18:48:00,
2017-05-22 12:54:00,82.0,28.2,29.72,WSW,255,2.0,5.0,14,0.00,,,0.00,meteobridge,2017-05-22 18:54:00,
2017-05-22 12:57:00,82.9,30.6,29.72,WSW,255,2.0,5.0,15,0.00,,,0.00,meteobridge,2017-05-22 18:57:00,
2017-05-22 13:02:00,82.9,25.2,29.70,WSW,254,8.1,8.1,12,0.00,,,0.00,meteobridge,2017-05-22 19:02:00,
2017-05-22 13:07:00,82.4,24.6,29.70,WSW,248,4.0,9.0,12,0.00,,,0.00,meteobridge,2017-05-22 19:07:00,
2017-05-22 13:12:00,82.6,30.2,29.70,WSW,248,6.0,7.0,15,0.00,,,0.00,meteobridge,2017-05-22 19:12:00,
2017-05-22 13:14:00,83.1,28.9,29.71,WSW,248,6.0,8.0,14,0.00,,,0.00,meteobridge,2017-05-22 19:14:00,
2017-05-22 13:20:00,82.2,28.2,29.71,WSW,250,0.0,6.0,14,0.00,,,0.00,meteobridge,2017-05-22 19:20:00,
2017-05-22 13:25:00,82.8,28.8,29.71,WSW,250,4.9,9.0,14,0.00,,,0.00,meteobridge,2017-05-22 19:25:00,
2017-05-22 13:30:00,84.0,27.9,29.70,WSW,245,6.0,11.0,13,0.00,,,0.00,meteobridge,2017-05-22 19:30:00,
2017-05-22 13:34:00,84.0,25.9,29.70,WSW,241,12.1,12.1,12,0.00,,,0.00,meteobridge,2017-05-22 19:34:00,
2017-05-22 13:40:00,83.5,23.4,29.70,WSW,240,4.9,15.0,11,0.00,,,0.00,meteobridge,2017-05-22 19:40:00,
2017-05-22 13:45:00,83.7,25.7,29.70,WSW,240,11.0,13.0,12,0.00,,,0.00,meteobridge,2017-05-22 19:45:00,
2017-05-22 13:50:00,83.8,25.9,29.70,WSW,238,2.0,8.0,12,0.00,,,0.00,meteobridge,2017-05-22 19:50:00,
2017-05-22 13:55:00,83.5,23.4,29.70,WSW,240,13.0,13.0,11,0.00,,,0.00,meteobridge,2017-05-22 19:55:00,
2017-05-22 14:01:00,82.6,24.8,29.70,WNW,298,6.9,14.0,12,0.00,,,0.00,meteobridge,2017-05-22 20:01:00,
2017-05-22 14:06:00,84.0,23.9,29.70,WSW,243,8.1,16.0,11,0.00,,,0.00,meteobridge,2017-05-22 20:06:00,
2017-05-22 14:11:00,85.1,24.6,29.70,WSW,241,8.9,10.0,11,0.00,,,0.00,meteobridge,2017-05-22 20:11:00,
2017-05-22 14:16:00,84.7,24.4,29.70,WSW,241,6.0,8.0,11,0.00,,,0.00,meteobridge,2017-05-22 20:16:00,
2017-05-22 14:22:00,84.7,24.4,29.70,SW,228,6.0,10.0,11,0.00,,,0.00,meteobridge,2017-05-22 20:22:00,
2017-05-22 14:27:00,84.9,22.3,29.70,WSW,241,6.0,14.0,10,0.00,,,0.00,meteobridge,2017-05-22 20:27:00,
2017-05-22 14:37:00,85.1,22.5,29.68,SW,236,6.9,11.0,10,0.00,,,0.00,meteobridge,2017-05-22 20:37:00,
2017-05-22 14:42:00,84.9,22.3,29.68,SW,230,4.0,4.0,10,0.00,,,0.00,meteobridge,2017-05-22 20:42:00,
2017-05-22 14:48:00,85.5,22.6,29.68,SW,231,13.0,13.0,10,0.00,,,0.00,meteobridge,2017-05-22 20:48:00,
2017-05-22 14:53:00,85.3,22.6,29.68,SW,217,2.9,12.0,10,0.00,,,0.00,meteobridge,2017-05-22 20:53:00,
2017-05-22 14:58:00,84.9,22.3,29.68,SW,231,2.0,9.0,10,0.00,,,0.00,meteobridge,2017-05-22 20:58:00,
2017-05-22 15:03:00,84.9,22.3,29.67,WSW,250,11.0,14.0,10,0.00,,,0.00,meteobridge,2017-05-22 21:03:00,
2017-05-22 15:09:00,84.9,22.3,29.67,West,265,4.0,12.0,10,0.00,,,0.00,meteobridge,2017-05-22 21:09:00,
2017-05-22 15:14:00,84.7,22.1,29.66,WSW,255,2.9,8.0,10,0.00,,,0.00,meteobridge,2017-05-22 21:14:00,
2017-05-22 15:19:00,85.3,22.6,29.66,WSW,254,2.0,6.0,10,0.00,,,0.00,meteobridge,2017-05-22 21:19:00,
2017-05-22 15:24:00,85.8,20.5,29.66,SW,233,10.1,11.0,9,0.00,,,0.00,meteobridge,2017-05-22 21:24:00,
2017-05-22 15:29:00,86.4,20.8,29.65,WSW,243,13.0,16.0,9,0.00,,,0.00,meteobridge,2017-05-22 21:29:00,
2017-05-22 15:35:00,85.3,20.1,29.65,WSW,241,6.0,19.0,9,0.00,,,0.00,meteobridge,2017-05-22 21:35:00,
2017-05-22 15:40:00,85.5,22.6,29.65,West,279,6.9,11.0,10,0.00,,,0.00,meteobridge,2017-05-22 21:40:00,
2017-05-22 15:45:00,85.8,17.8,29.64,South,188,11.0,12.0,8,0.00,,,0.00,meteobridge,2017-05-22 21:45:00,
2017-05-22 15:50:00,86.4,20.8,29.64,South,178,6.0,10.0,9,0.00,,,0.00,meteobridge,2017-05-22 21:50:00,
2017-05-22 15:51:00,86.4,18.1,29.64,South,176,4.9,8.0,8,0.00,,,0.00,meteobridge,2017-05-22 21:51:00,
2017-05-22 15:56:00,86.4,18.1,29.64,South,176,4.0,6.0,8,0.00,,,0.00,meteobridge,2017-05-22 21:56:00,
2017-05-22 16:01:00,87.1,18.7,29.63,South,173,4.9,14.0,8,0.00,,,0.00,meteobridge,2017-05-22 22:01:00,
2017-05-22 16:06:00,87.3,15.6,29.63,South,183,6.0,10.0,7,0.00,,,0.00,meteobridge,2017-05-22 22:06:00,
2017-05-22 16:12:00,86.5,18.3,29.63,SSW,195,2.9,6.0,8,0.00,,,0.00,meteobridge,2017-05-22 22:12:00,
2017-05-22 16:17:00,85.8,17.8,29.64,SW,224,8.1,9.0,8,0.00,,,0.00,meteobridge,2017-05-22 22:17:00,
2017-05-22 16:22:00,85.3,14.2,29.64,SW,221,2.0,8.0,7,0.00,,,0.00,meteobridge,2017-05-22 22:22:00,
2017-05-22 16:27:00,85.5,17.4,29.64,SW,221,2.9,9.0,8,0.00,,,0.00,meteobridge,2017-05-22 22:27:00,
2017-05-22 16:32:00,85.1,17.2,29.64,West,267,6.9,11.0,8,0.00,,,0.00,meteobridge,2017-05-22 22:32:00,
2017-05-22 16:37:00,85.5,14.4,29.64,WSW,251,11.0,13.0,7,0.00,,,0.00,meteobridge,2017-05-22 22:37:00,
2017-05-22 16:42:00,86.2,11.5,29.64,WSW,241,14.1,18.0,6,0.00,,,0.00,meteobridge,2017-05-22 22:42:00,
2017-05-22 16:47:00,86.2,11.5,29.63,SW,234,8.9,14.0,6,0.00,,,0.00,meteobridge,2017-05-22 22:47:00,
2017-05-22 16:53:00,85.6,10.9,29.63,SW,224,12.1,14.0,6,0.00,,,0.00,meteobridge,2017-05-22 22:53:00,
2017-05-22 16:58:00,86.7,11.8,29.63,WSW,237,12.1,13.0,6,0.00,,,0.00,meteobridge,2017-05-22 22:58:00,
2017-05-22 17:03:00,86.4,11.5,29.62,SW,234,11.0,18.0,6,0.00,,,0.00,meteobridge,2017-05-22 23:03:00,
2017-05-22 17:08:00,85.3,10.8,29.62,WSW,244,6.9,13.0,6,0.00,,,0.00,meteobridge,2017-05-22 23:08:00,
2017-05-22 17:13:00,84.0,19.0,29.62,South,172,16.1,27.0,9,0.00,,,0.00,meteobridge,2017-05-22 23:13:00,
2017-05-22 17:15:00,83.5,21.2,29.64,WNW,286,17.0,22.0,10,0.00,,,0.00,meteobridge,2017-05-22 23:15:00,
2017-05-22 17:20:00,83.8,21.4,29.64,NNW,344,16.1,31.0,10,0.00,,,0.00,meteobridge,2017-05-22 23:20:00,
2017-05-22 17:25:00,84.4,19.4,29.64,NW,313,21.0,31.0,9,0.00,,,0.00,meteobridge,2017-05-22 23:25:00,
2017-05-22 17:30:00,83.8,21.4,29.65,WNW,295,36.0,37.0,10,0.00,,,0.00,meteobridge,2017-05-22 23:30:00,
2017-05-22 17:36:00,84.0,21.6,29.65,NW,309,25.1,32.0,10,0.00,,,0.00,meteobridge,2017-05-22 23:36:00,
2017-05-22 17:41:00,83.5,21.2,29.65,NW,309,13.0,31.0,10,0.00,,,0.00,meteobridge,2017-05-22 23:41:00,
2017-05-22 17:47:00,83.1,20.8,29.65,NW,320,17.9,27.0,10,0.00,,,0.00,meteobridge,2017-05-22 23:47:00,
2017-05-22 17:52:00,82.4,20.3,29.65,NW,309,19.0,27.0,10,0.00,,,0.00,meteobridge,2017-05-22 23:52:00,
2017-05-22 17:57:00,82.9,20.8,29.65,NW,312,19.9,29.0,10,0.00,,,0.00,meteobridge,2017-05-22 23:57:00,
2017-05-22 18:02:00,82.4,20.3,29.65,NW,320,14.1,24.0,10,0.00,,,0.00,meteobridge,2017-05-23 00:02:00,
2017-05-22 18:07:00,82.6,20.5,29.65,WNW,303,17.9,25.0,10,0.00,,,0.00,meteobridge,2017-05-23 00:07:00,
2017-05-22 18:12:00,82.6,20.5,29.65,NW,315,19.9,24.0,10,0.00,,,0.00,meteobridge,2017-05-23 00:12:00,
2017-05-22 18:17:00,82.6,20.5,29.64,NW,319,17.9,25.0,10,0.00,,,0.00,meteobridge,2017-05-23 00:17:00,
2017-05-22 18:22:00,82.8,20.7,29.64,NW,305,19.0,19.0,10,0.00,,,0.00,meteobridge,2017-05-23 00:22:00,
2017-05-22 18:27:00,82.8,20.7,29.64,NW,308,13.0,19.0,10,0.00,,,0.00,meteobridge,2017-05-23 00:27:00,
2017-05-22 18:32:00,82.6,20.5,29.64,NNW,327,13.0,14.0,10,0.00,,,0.00,meteobridge,2017-05-23 00:32:00,
2017-05-22 18:37:00,82.8,18.1,29.64,WNW,299,17.0,17.0,9,0.00,,,0.00,meteobridge,2017-05-23 00:37:00,
2017-05-22 18:42:00,82.8,20.7,29.64,NW,313,10.1,14.0,10,0.00,,,0.00,meteobridge,2017-05-23 00:42:00,
2017-05-22 18:47:00,82.8,18.1,29.64,WNW,295,19.0,19.0,9,0.00,,,0.00,meteobridge,2017-05-23 00:47:00,
2017-05-22 18:53:00,82.6,18.0,29.64,NW,310,6.0,14.0,9,0.00,,,0.00,meteobridge,2017-05-23 00:53:00,
2017-05-22 18:58:00,82.6,18.0,29.64,NW,319,10.1,18.0,9,0.00,,,0.00,meteobridge,2017-05-23 00:58:00,
2017-05-22 19:03:00,82.8,18.1,29.64,NW,309,13.0,19.0,9,0.00,,,0.00,meteobridge,2017-05-23 01:03:00,
2017-05-22 19:08:00,82.6,18.0,29.64,WNW,291,13.0,18.0,9,0.00,,,0.00,meteobridge,2017-05-23 01:08:00,
2017-05-22 19:13:00,82.6,18.0,29.64,WNW,298,16.1,18.0,9,0.00,,,0.00,meteobridge,2017-05-23 01:13:00,